Flag for Brazil Weather past 2 weeks in São Paulo, São Paulo, Brazil

Now
64 °F

Mostly cloudy.


Feels Like: 64 °F
Forecast: 65 / 78 °F
Wind: 5 mph from Southeast

Location: Sao Paulo Airport

Current Time: Apr 28, 2015 at 4:25:27 AM

Latest Report: Apr 28, 2015 at 3:46 AM


Visibility: N/A

Pressure: 30.07 "Hg

Humidity: 83%

Dew point: 59 °F

Location of São PauloLocation

Historic Weather in São Paulo — Graph

°F

São Paulo temperature yesterday

Maximum temperature yesterday: 77 °F (at 2:00 PM)
Minimum temperature yesterday: 61 °F (at 6:00 AM)
Average temperature yesterday: 67 °F

Past Weeks' High & Low Weather Summary

 TemperatureHumidityPressure
High84 °F (Apr 20, 4:00 PM)94% (Apr 16, 4:00 AM)30.24 "Hg (Apr 16, 4:00 AM)
Low61 °F (Apr 25, 9:00 PM)44% (Apr 27, 2:00 PM)29.92 "Hg (Apr 22, 11:00 PM)
Average70 °F77%30.10 "Hg
* Reported Apr 13 3:00 AM — Apr 28 3:04 AM, São Paulo, Weather by CustomWeather, © 2015

Note: Actual official high and low records may vary slightly from our data, if they occured in-between our weather recording intervals... More about our weather records

Advertising

São Paulo weather history for previous 24 hours

 ConditionsComfort  
Time TempWeatherWind HumidityBarometerVisibility
3:04 AM
Tue, Apr 28
64 °FPassing clouds.3 mph83%30.07 "HgN/A
2:00 AM64 °FPassing clouds.6 mph83%30.09 "HgN/A
1:00 AM63 °FClear.3 mph88%30.12 "Hg10 mi
12:00 AM64 °FPassing clouds.7 mph83%30.12 "HgN/A
11:00 PM
Mon, Apr 27
66 °FPartly cloudy.7 mph78%30.15 "HgN/A
10:00 PM66 °FPartly cloudy.5 mph78%30.15 "HgN/A
9:00 PM66 °FPartly cloudy.6 mph78%30.15 "HgN/A
8:00 PM64 °FPartly cloudy.9 mph83%30.12 "HgN/A
7:00 PM66 °FPartly cloudy.12 mph78%30.12 "HgN/A
6:00 PM66 °FPartly cloudy.12 mph83%30.09 "Hg6 mi
5:00 PM70 °FPassing clouds.14 mph73%30.09 "HgN/A
4:00 PM72 °FScattered clouds.13 mph65%30.09 "HgN/A
3:00 PM73 °FScattered clouds.12 mph61%30.09 "HgN/A
2:00 PM77 °FScattered clouds.5 mph44%30.09 "HgN/A
1:00 PM75 °FScattered clouds.3 mph50%30.12 "HgN/A
12:00 PM72 °FPassing clouds.7 mph61%30.15 "HgN/A
11:00 AM68 °FSunny.9 mph69%30.18 "Hg10 mi
10:00 AM66 °FPassing clouds.6 mph73%30.21 "HgN/A
9:00 AM64 °FBroken clouds.8 mph78%30.21 "HgN/A
8:00 AM63 °FPartly sunny.7 mph83%30.18 "HgN/A
7:00 AM63 °FBroken clouds.3 mph83%30.18 "HgN/A
6:00 AM61 °FScattered clouds.5 mph88%30.15 "HgN/A
5:00 AM63 °FPassing clouds.6 mph83%30.15 "HgN/A
4:00 AM63 °FPassing clouds.6 mph83%30.15 "HgN/A
Weather by CustomWeather, © 2015

See weather overviewHow to use our weather pages